Location: Gorze? G�rny
(49.8500°N, 19.5000°E)
Time: 04:12:43
(UTC+00:00)

Cosmos 1666 - Pass Details

Date: 13 May 2021
Orbit: 496 x 519 km, 82.5° (Epoch: 23 June)

Event Time Altitude Azimuth Distance (km) Brightness Sun altitude
Rises 20:17:44 0° 343° (NNW) 2,602 7.8 -14.8°
Reaches altitude 10° 20:19:56 10° 336° (NNW) 1,711 6.7 -15.0°
Maximum altitude 20:23:26 39° 267° (W) 763 3.8 -15.3°
Enters shadow 20:26:06 15° 203° (SSW) 1,390 4.5 -15.6°
